www.pogodaiklimat.ru

Погода и климат >> Архив погоды >> Россия >> Астраханская область >> Астрахань


АРХИВ ПОГОДЫ в Астрахани

Время (UTC), дата Ветер
(напр.,м/с)
 
Видим.   Явления Облачность Т
(С)
Тd
(С)
f
(%)
Тe
(С)
Тes
(С)
Комфортность P
(гПа)
Po
(гПа)
Тmin
(С)
Tmax
(С)
R
(мм)
R24
(мм)
S
(см)
18 18.05 ЮВ 1 10 км 1/0
[Ci fib]
+20.6 +11.5 56 +24 +24 комфорт 1017.4 1019.9
21 18.05 штиль 0 10 км ясно +15.3 +12.9 86 +15 +15 по сезону 1016.4 1019.0
00 19.05 штиль 0 10 км ясно +14.1 +10.8 81 +14 +14 по сезону 1015.7 1018.2
03 19.05 В 2 10 км 8/0
[Ci fib]
+19.5 +12.9 66 +22 +23 комфорт 1015.7 1018.2 +13.8
06 19.05 ЮВ 4 10 км 9/0
[Ac trans Ci fib]
+24.8 +10.4 40 +26 +31 жарко 1015.9 1018.3
09 19.05 В 3 10 км 4/0
[Ac trans Ci fib]
+26.7 +10.5 36 +27 +39 жарко 1015.6 1018.0
12 19.05 ЮВ 3 10 км 8/0
[Ci fib]
+27.3 +10.6 35 +28 +35 жарко 1014.6 1017.0
15 19.05 ЮВ 2 10 км 9/0
[Ac trans Ci fib]
+23.5 +14.5 57 +26 +27 жарко 1014.6 1017.1 +27.4
18 19.05 В 2 10 км 9/0
[Ci fib]
+19.1 +15.7 81 +21 +21 комфорт 1015.1 1017.6
21 19.05 штиль 0 4000 м дымка 8/0
[Ac trans Ci fib]
+17.0 +15.8 93 +17 +17 тепло 1015.1 1017.6
00 20.05 В 1 4000 м дымка 9/0
[Ac trans Ci fib]
+15.9 +15.0 94 +17 +17 тепло 1015.0 1017.5
03 20.05 В 2 4000 м дымка 9/3 600 м
[Cb calv Ac trans Ci fib]
+18.8 +16.2 85 +20 +21 тепло 1015.4 1017.9 +15.0
06 20.05 ЮВ 4 10 км 9/0
[Ac trans Ci fib]
+26.0 +9.5 35 +26 +32 жарко 1016.0 1018.4
09 20.05 ЮВ 4 10 км 9/0
[Ac trans Ci fib]
+29.2 +5.2 22 +28 +36 жарко 1016.0 1018.4
12 20.05 ЮВ 4 10 км 9/1 600 м
[Cb cap Ac trans Ci fib]
+28.6 +3.3 20 +27 +30 жарко 1015.8 1018.2
15 20.05 В 3 10 км 6/0
[Ac trans Ci fib]
+27.0 +5.6 25 +26 +27 жарко 1014.7 1017.1 +29.8
18 20.05 штиль 0 10 км 6/0
[Ac trans Ci fib]
+20.8 +10.2 51 +22 +22 комфорт 1015.0 1017.5
21 20.05 В 1 10 км 8/0
[Ac trans]
+19.0 +15.3 79 +21 +21 комфорт 1014.4 1016.9
00 21.05 штиль 0 10 км 8/0
[Ac trans Ci fib]
+19.8 +14.0 69 +21 +21 комфорт 1013.8 1016.3
03 21.05 В 3 10 км 8/1 600 м
[Cb cap Ac trans Ci fib]
+22.8 +15.3 63 +27 +28 душно 1014.3 1016.8 +18.8
06 21.05 В 6-12
{13}
10 км 8/1 600 м
[Cb calv Ac trans Ci fib]
+29.0 +6.3 24 +28 +30 жарко 1014.7 1017.1
09 21.05 ЮВ 6-11
{14}
10 км пыльный позёмок 9/5 600 м
[Cb calv Ac trans]
+28.7 +3.0 19 +27 +29 жарко 1015.1 1017.5
12 21.05 В 4
{11}
10 км {ливн. осадки} 9/6 600 м
[Cb calv Ac trans]
+30.5 +5.3 20 +29 +30 жарко 1014.8 1017.2
15 21.05 В 2 10 км 9/4 600 м
[Cb calv Ac trans Ci fib]
+27.9 +6.9 26 +27 +28 жарко 1014.8 1017.2 +30.5 0.0
18 21.05 В 1 10 км 9/4 600 м
[Cb calv Ac trans]
+22.5 +13.6 57 +26 +26 жарко 1016.0 1018.5
21 21.05 В 2 10 км 4/0
[Ac trans]
+21.2 +13.9 63 +24 +24 комфорт 1015.7 1018.2
00 22.05 штиль 0 10 км 9/5 600 м
[Cb calv Ac trans]
+21.0 +13.4 62 +23 +23 комфорт 1016.4 1018.8
03 22.05 В 1 10 км 9/9 600 м
[Cb calv]
+22.4 +13.5 57 +25 +26 комфорт 1018.3 1020.7 +20.1
06 22.05 ЮВ 3 10 км 9/6 600 м
[Cb calv Ac trans Ci fib]
+31.3 +4.7 19 +29 +32 жарко 1019.0 1021.4
09 22.05 В 3 10 км 9/0
[Ac trans Ci fib]
+33.2 +2.5 14 +30 +40 жарко 1019.9 1022.3
12 22.05 ЮВ 3 10 км 9/3 1500 м
[Cu hum Ci fib]
+33.3 +1.3 13 +30 +35 жарко 1019.8 1022.2
15 22.05 В 1 10 км 8/0
[Ci fib]
+32.0 +2.4 15 +29 +30 жарко 1019.9 1022.3 +34.0
18 22.05 СВ 1 10 км 3/0
[Ci fib]
+24.0 +9.9 41 +25 +25 комфорт 1020.4 1022.9
21 22.05 СВ 3 10 км ясно +20.3 +13.1 63 +23 +23 комфорт 1021.1 1023.6
00 23.05 СВ 1 10 км ясно +21.5 +13.6 61 +24 +24 комфорт 1020.9 1023.4
03 23.05 СВ 2 10 км 3/0
[Ci fib]
+23.9 +17.1 66 +28 +30 душно 1021.2 1023.6 +19.1
06 23.05 СВ 3 10 км ясно +31.0 +15.4 39 +33 +44 душно 1021.5 1023.9
09 23.05 В 5-10
{11}
10 км 3/1 600 м
[Cb cap Ci fib]
+33.8 +11.4 26 +34 +42 очень
жарко
1021.0 1023.4
12 23.05 В 5-11
{12}
10 км ясно +32.6 +10.1 25 +32 +38 жарко 1020.2 1022.6
15 23.05 В 3
{13}
10 км ясно +29.4 +12.1 34 +30 +31 жарко 1019.5 1021.9 +34.2
18 23.05 СВ 2 10 км ясно +23.7 +14.8 57 +26 +26 жарко 1019.1 1021.5
21 23.05 СВ 1 10 км ясно +21.8 +15.4 67 +25 +25 комфорт 1018.2 1020.6
00 24.05 В 1 10 км ясно +21.2 +15.3 69 +24 +24 комфорт 1016.9 1019.4
03 24.05 В 2 10 км ясно +24.0 +16.6 63 +27 +29 жарко 1016.0 1018.5 +20.4
06 24.05 В 4 10 км ясно +29.1 +11.5 34 +30 +38 жарко 1016.3 1018.7
09 24.05 ЮВ 5 10 км ясно +30.0 +11.5 32 +31 +40 жарко 1015.6 1018.0
12 24.05 В 4
{10}
10 км ясно +30.3 +11.7 32 +31 +38 жарко 1014.3 1016.7
15 24.05 ЮВ 4
{10}
10 км ясно +28.5 +9.4 30 +28 +29 жарко 1012.9 1015.3 +30.7
18 24.05 В 1 10 км 3/0
[Ci fib]
+22.0 +15.0 64 +25 +25 комфорт 1013.4 1015.8
21 24.05 штиль 0 10 км 3/0
[Ci fib]
+19.1 +16.3 84 +21 +21 комфорт 1011.4 1013.9
00 25.05 штиль 0 4000 м дымка 3/0
[Ci fib]
+16.7 +15.3 91 +17 +17 тепло 1010.7 1013.2
03 25.05 В 2 10 км 3/0
[Ci fib]
+21.1 +15.8 72 +24 +26 комфорт 1010.1 1012.5 +15.7
06 25.05 ЮВ 3 10 км ясно +30.0 +7.4 24 +29 +39 жарко 1009.6 1012.0
09 25.05 В 5 10 км ясно +31.5 +8.9 25 +31 +40 жарко 1008.6 1011.0
12 25.05 ЮВ 4
{10}
10 км ясно +30.4 +12.0 32 +31 +38 жарко 1007.6 1010.0

 

Местоположение метеостанции Астрахань (Астраханская область, Россия): широта 46.28 долгота 47.98 высота над уровнем моря -21 м.

В архиве по умолчанию представлена погода в Астрахани за последнюю неделю. Архивные данные за месяц целиком и за предыдущие месяцы, начиная с января 2011 года, Вы можете получить, выбрав интересующий диапазон дат из раскрывающегося списка и нажав кнопку "Ввод!".


*Определитесь, кто Вы:
робот инопланетянин человек

Внимание! Время в таблицах - всемирное. Для получения местного времени необходимо прибавить поправку, которая в Астрахани равна 4 ч.

Смотрите также архив погоды в соседних городах и на ближайших метеорологических станциях:

Погода в Зеленге (Астраханская область, Россия) (50 км)
Погода в Досанге (Астраханская область, Россия) (71 км)
Погода в Лимане (Астраханская область, Россия) (79 км)
Погода в Ганюшкино (Атырауская область, Казахстан) (105 км)
Погода в Лагани (Калмыкия, Россия) (109 км)
Погода в Харабали (Астраханская область, Россия) (136 км)
Погода в Утте (Калмыкия, Россия) (151 км)
Погода в Юсте (Калмыкия, Россия) (158 км)
Погода в Исатай (Атырауская область, Казахстан) (170 км)
Погода в Артезиане (Калмыкия, Россия) (177 км)

Пояснения к столбцам:

Ветер - указаны скорость ветра в м/с - средняя за 10 мин, порывы в срок и между сроками (в фигурных скобках) и направление, откуда дует ветер: С - северный, СВ - северо-восточный, В - восточный, ЮВ - юго-восточный, Ю - южный, ЮЗ - юго-западный, З - западный, СЗ - северо-западный.
Видимость - горизонтальная дальность видимости в метрах или километрах. При видимости от 1 до 10 км при отсутствии осадков обычно наблюдается дымка, при ухудшении видимости до 1 км и менее - туман. В сухую погоду видимость может ухудшаться дымом, пылью или мглою.
Явления - указаны атмосферные явления, наблюдавшиеся в срок или в последний час перед сроком; фигурными скобками обозначены явления, наблюдавшиеся между сроками (за 1-3 часа до срока); квадратными скобками обозначены град или гололедные отложения с указанием их диаметра в мм.
Облачность - указаны через наклонную черту общая и нижняя облачность в баллах и высота нижней границы облаков в метрах; квадратными скобками обозначены формы облаков: Ci - перистые, Cs - перисто-слоистые, Cc - перисто-кучевые, Ac - высококучевые, As - высокослоистые, Sc - слоисто-кучевые, Ns - слоисто-дождевые, Cu - кучевые, Cb - кучево-дождевые. Подробнее классификацию облаков см. в Атласе облаков (PDF).
T - Температура воздуха - температура, измеренная на высоте 2 м над землей.
Td - Температура точки росы - температура, при понижении до которой содержащийся в воздухе водяной пар достигнет насыщения.
f - Относительная влажность воздуха - влажноcть воздуха, измеренная на высоте 2 м над землей.
Te - Эффективная температура - температура, которую ощущает одетый по сезону человек в тени. Характеристика душности погоды. При расчете учитывается влияние влажности воздуха и скорости ветра на теплоощущения человека.
Tes - Эффективная температура на солнце - температура, которую ощущает человек, с поправкой на солнечный нагрев. Характеристика знойности погоды. Зависит от высоты солнца над горизонтом, облачности и скорости ветра. Ночью, в пасмурную погоду, а также при ветре 12 м/с и более поправка равна нулю.
P - Атмосферное давление - приведенное к уровню моря атмосферное давление.
Po - Атмосферное давление - измеренное на уровне метеостанции атмосферное давление.
Tmin - Минимальная температура - минимум температуры воздуха на высоте 2 м над землей.
Tmax - Максимальная температура - максимум температуры воздуха на высоте 2 м над землей.
R - Количество осадков - Количество выпавших осадков за период времени, мм. При наведении курсора мыши на число - период времени, за который выпало указанное количество осадков.
R24 - Количество осадков - Количество выпавших осадков за 24 часа, мм.
S - Снежный покров - Высота снежного покрова, см. При наведении курсора мыши на число - состояние снежного покрова и степень покрытия местности в баллах.